Weather in Trepolskiy

Russia / Ryazan Oblast     54°20′28″N   38°50′11″E
temp.,
°C
wind,
m/s
gust,
m/s
humid.,
%
clouds,
%
prec.,
mm/h
press.,
hPa
HPBL,
m
23 october, sat
sat2300:00+7wsw613684 0.0 1006606
03:00+6sw61275100 0.0 1006492
06:00+6sw714706 0.0 1006583
09:00+6sw714665 0.0 1007823
12:00+9sw8145258 0.0 10081378
15:00+9wsw71159100 0.0 10081598
18:00+6wsw6117389 0.2 1009641
21:00+5wsw613805 0.2 1011557
24 october, sun
sun2400:00+4w612755 0.0 1012583
03:00+3wsw61375100 0.0 1012573
06:00+3wsw6128487 0.0 1012753
09:00+3w61095100 0.1 1013760
12:00+5wnw7107199 0.5 10151152
15:00+4wnw71184100 0.7 1016965
18:00+3nw7117899 0.3 10181006
21:00+1nnw7127131 0.3 1021966
25 october, mon
mon2500:000nnw612815 0.0 1023679
03:00−1nw612875 0.0 1026464
06:00−2nw510865 0.0 1028372
09:00−1nnw4779100 0.0 1030360
12:00+3nw445845 0.0 1030792
15:00+3w455187 0.0 1029916
18:00+1wsw366711 0.0 1030121
21:000wsw4107429 0.0 1029229
26 october, tue
tue2600:000wsw512740 0.0 1029300
03:000wsw614735 0.0 1028334
06:000wsw61475100 0.0 1027338
09:00+1wsw61469100 0.0 1027407
12:00+5wsw71257100 0.0 1026501
15:00+6wsw7135638 0.0 1025604
18:00+4sw6146398 0.0 1025392
21:00+3sw6156780 0.0 1024406
27 october, wed
wed2700:00+3wsw6156963 0.0 1024377
03:00+2sw614705 0.0 1024341
06:00+1sw614715 0.0 1023325
09:00+2sw615640 0.0 1022408
12:00+7sw714520 0.0 1021644
15:00+8sw713525 0.0 1019820
18:00+6sw71455100 0.0 1019562
21:00+5wsw61461100 0.0 1019503